Погода в Нижневартовске

Погода в Нижневартовске : погода сейчас, прогноз погоды и архив. Всё, что Вы хотите узнать о погоде в Нижневартовске!

Поиск расширенной информации на нашем сайте:

Другие новости

Новости СМИ2

Главная страница сайта

Новости сайта

03.07.2017

Напоминаем, что на нашем специализированном сайте Метеоцентр.Азия вы можете получить высокодетализированные автоматические прогнозы погоды по пунктам России, СНГ и мира в авиационном формате (включающие направление и скорость ветра, видимость, явления погоды, количество и форму облачности, нижнюю и верхнюю границу облачности).

Рекомендуем: Отзывы: Горящие туры из кемерово - сезонные скидки.

Погода в Нижневартовске - сегодня

Время (UTC), дата Ветер
(°,м/с) 
Видим.   Явления Облачность Т
(°С)
Тd
(°С)
f(%) Тe
(°С)
Pmin
(гПа)
dP
(гПа)
Po
(мм)
O2
(г/м3)
Тmin Tmax R s Состояние
почвы
03 18.11.17 тихо ()   2100 м  слаб. снег  10/8 150 м средняя 
[Frnb|As op]
-8.6 -9.3 95 -9  1014.3  -0.7  755  315  -8.6    0.0  24  равномерный
сухой снег
100% 
06 18.11.17 тихо ()   10 км  снежные кристаллы  10/0 средняя 
[As trans]
-7.6 -8.5 93 -8  1013.7  -0.4  755  314           
09 18.11.17 тихо ()   20000 м  {снег}  9/9 420 м 
[St]
-7.8 -8.4 95 -8  1013.9  755  314           
12 18.11.17 220 (ЮЗ) 20000 м  {снег}  10/10 120 м 
[St]
-8.3 -8.9 95 -10  1014  0.1  755  315           
15 18.11.17 250 (З) 20000 м    10/10 180 м 
[St]
-7.2 -8.1 93 -7  1013.6  -0.2  755  313    -7.2  0.8     
18 18.11.17 200 (Ю) 20000 м    10/10 270 м 
[St]
-6.8 -7.3 96 -8  1013.2  -0.4  755  313           
21 18.11.17 240 (ЮЗ) 5000 м  слаб. ливневой снег  10/6 700 м кучево-дожд., средняя 
[Cb calv|As op]
-7 -7.5 96 -8  1013.4  0.2  755  313           
00 19.11.17 260 (З) 8000 м  слаб. ливневой снег  10/5 570 м кучево-дожд., средняя 
[Cb calv|As op]
-7.4 -8 95 -9  1014.2  0.8  755  314           
03 19.11.17 260 (З) 5000 м  слаб. ливневой снег  10/8 800 м кучево-дожд., средняя 
[Cb calv|As op]
-7.3 -7.8 96 -9  1015.6  1.4  756  314  -7.5    0.8  25  равномерный
сухой снег
100% 
06 19.11.17 290 (З) 20000 м  в посл. час ливневой снег  9/3 600 м кучево-дожд., средняя 
[Cb calv|Ac trans]
-8.7 -9.4 95 -10    758  316           
09 19.11.17 260 (З) 20000 м  {ливн. осадки}  3/0 верхняя 
[Ci fib]
-10.5 -11.1 95 -12  1019.8  759  319           
12 19.11.17 тихо ()   3100 м  дымка  4/0 средняя 
[Ac trans]
-15.2 -16.5 90 -15  1021.6  1.7  761  326           
15 19.11.17 тихо ()   2700 м  слаб. снег{туман}  10/8 420 м средняя 
[Frnb|As op]
-14 -16 85 -14  1022.7  761  325    -7.3  0.2     
18 19.11.17 160 (Ю) 3700 м  слаб. снег{туман}  10/8 480 м средняя 
[Frnb|As op]
-11.5 -12.8 90 -13  1022.9  0.3  762  322           
21 19.11.17 140 (ЮВ) 20000 м  {снег}  10/8 600 м средняя 
[Sc|As op]
-10.3 -11.6 90 -12  1023.1  0.2  762  320           
00 20.11.17 140 (ЮВ) 9000 м  слаб. снег  10/8 500 м средняя 
[Sc|As op]
-9.5 -10.7 91 -13  1022.9  -0.2  762  319           
03 20.11.17 160 (Ю) 9000 м  слаб. снег  10/8 240 м средняя 
[Frnb|As op]
-8.1 -9.1 92 -11  1022.4  -0.5  761  317  -14    0.3  25  равномерный
сухой снег
100% 
06 20.11.17 170 (Ю) 9000 м  слаб. ливневой снег  10/8 270 м кучево-дожд., средняя 
[Cb calv|As op]
-6.2 -7 94 -6  1021.9  -0.2  761  315           
09 20.11.17 220 (ЮЗ) 9000 м  слаб. снег{ливн. осадки}  10/8 180 м средняя 
[Frnb|As op]
-2.6 -3.2 96 -5  1021.6  -0.2  761  310           
12 20.11.17 230 (ЮЗ) 9000 м  слаб. ливневой снег  10/8 300 м кучево-дожд., средняя 
[Cb calv|As op]
-1.5 -2.3 94 -3  1022  0.3  761  309           
15 20.11.17 240 (ЮЗ) 20000 м  {ливн. осадки}  10/8 240 м средняя 
[Frnb|As op]
-1.6 -2.4 94 -4  1022.2  0.2  762  309    -1.5  0.6     
18 20.11.17 250 (З) 20000 м  {снег}  10/8 270 м средняя 
[Frnb|As op]
-1.7 -4.1 84 -4  1022.6  0.4  762  309           
21 20.11.17 260 (З) 20000 м    10/10 210 м 
[St]
-2.4 -4.6 85 -3  1023.7  1.1  763  311           
00 21.11.17 250 (З) 20000 м    10/10 180 м 
[St]
-3.2 -4.2 93 -6  1024.5  0.7  763  312           
03 21.11.17 180 (Ю) 20000 м    6/6 420 м 
[St]
-3.6 -4.7 92 -7  1023.8  -0.7  763  312  -3.6    0.2  26  равномерный
сухой снег
100% 
Время (UTC), дата Ветер
(°,м/с) 
Видим.   Явления Облачность Т
(°С)
Тd
(°С)
f(%) Тe
(°С)
Pmin
(гПа)
dP
(гПа)
Po
(мм)
O2
(г/м3)
Тmin Tmax R s Состояние
почвы

Для получения пояснительной информации подведите курсор к названию столбца.

ПОГОДА в Нижневартовске - архив

Всё, что Вы хотите узнать о погоде в Нижневартовске - удобно и подробно!

Выберите нужную дату (начиная с 1 января 2015* года) и нажмите кнопку "Найти".
Будут отображены архивные сводки погоды по пункту Нижневартовск, начиная с указанной даты.


Отображать данные в формате CSV (для использования в таблицах Excel)


Внимание! Наш архив погоды предназначен исключительно для личного некоммерческого использования в познавательных целях. Если Вам необходимы официальные справки о состоянии погоды (для производственных, юридических, коммерческих и т.п. целей), обращайтесь в органы Росгидромета.

*Примечание: данная дата относится к архиву по метеостанциям СССР (Россия, СНГ, Балтия).
Архив по метеостанциям Зарубежной Европы и Азии (кроме Китая) хранится 10 дней, по другим регионам земного шара (Китай, Африка, Америка, Австралия, Океания) - 1 день.

Нижневартовск - район местоположения метеостанции


Название, широта, долгота, высота метеостанции:
Нижневартовск 60.8°ш. 76.7°д. 44 м над ур. моря [Российская Федерация]

Дополнительная информация

В oтличие oт бoльшинства пoгoдных сайтoв мы публикуем пoдрoбную метеoинфoрмацию в детальнoм прoфессиoнальнoм фoрмате.

Характеристики температуры и влажнoсти вoздуха измеряются на высoте 2 м в тени вдали oт зданий и деревьев.
Скoрoсть ветра измеряется на высoте 10 м (на урoвне рoста челoвека скoрoсть ветра ниже в 1.5-2 раза). Если метеoстанция нахoдится в гoрoде или в лесу, тo скoрoсть ветра занижена на 2-4 м/с пo сравнению с oткрытым местoм. Скoрoсть ветра над акватoриями крупных рек и oзёр, а также на вершинах хoлмoв на 2-5 м/с выше, чем в oбычных услoвиях.
Атмoсфернoе давление в разных тoчках местнoсти мoжет значительнo oтличаться oт давления на метеoстанции, в зависимoсти oт услoвий рельефа (при пoдъёме на 10 м давление пoнижается примернo на 1 мм рт.ст.).